Weather History for KNPA - March, 2013

Change the Weather History Date:

Sunday, March 24, 2013

  Actual Average Record
Temperature  
Mean Temperature 66 °F -  
Max Temperature 78 °F 68 °F 84 °F (2011)
Min Temperature 51 °F 51 °F 37 °F (2002)
Cooling Degree Days 1    
Growing Degree Days 16 (Base 50)    
Moisture  
Dew Point 57 °F    
Average Humidity 69    
Maximum Humidity 100    
Minimum Humidity 41    
Precipitation  
Precipitation 0.00 in - - ()
Sea Level Pressure  
Sea Level Pressure 29.67 in    
Wind  
Wind Speed 12 mph (West)    
Max Wind Speed 16 mph    
Max Gust Speed 24 mph    
Visibility 8 miles    
Events      
Averages and records for this station are not official NWS values.
T = Trace of Precipitation, MM = Missing Value Source: NWS Daily Summary

Daily Weather History Graph

Daily Weather History Graph

Search for Another Location

Airport or City:

Trip Planner

Search our weather history database for the weather conditions in past years. The results will help you decide how hot, cold, wet, or windy it might be!

Date:

Astronomy

Mar. 24, 2013 Rise Set
Actual Time 6:47 AM CDT 7:03 PM CDT
Civil Twilight 6:23 AM CDT 7:27 PM CDT
Nautical Twilight 5:55 AM CDT 7:55 PM CDT
Astronomical Twilight 5:27 AM CDT 8:23 PM CDT
Moon 4:39 PM CDT (3/24) 4:47 AM CDT (3/24)
Length of Visible Light 13h 03m
Length of Day
12h 15m
Waxing Gibbous, 92% of the Moon is Illuminated
Mar 24
Waxing Gibbous
Mar 27
Full
Apr 2
Last Quarter
Apr 10
New
Apr 18
First Quarter

Hourly Weather History & Observations

Time (CDT) Temp. Dew Point Humidity Pressure Visibility Wind Dir Wind Speed Gust Speed Precip Events Conditions
12:56 AM 69.1 °F 68.0 °F 96% 29.61 in 5.0 mi SSW 15.0 mph - 0.00 in   Overcast
1:56 AM 69.1 °F 68.0 °F 96% 29.60 in 5.0 mi SW 15.0 mph - N/A   Overcast
2:56 AM 69.1 °F 68.0 °F 96% 29.59 in 5.0 mi SW 13.8 mph 24.2 mph 0.00 in   Overcast
3:56 AM 69.1 °F 69.1 °F 100% 29.58 in 5.0 mi WSW 12.7 mph 23.0 mph N/A   Overcast
4:56 AM 69.1 °F 68.0 °F 96% 29.58 in 3.0 mi WSW 11.5 mph 18.4 mph N/A   Overcast
5:56 AM 69.1 °F 68.0 °F 96% 29.58 in 5.0 mi WSW 8.1 mph - 0.00 in   Overcast
6:06 AM 69.8 °F 68.0 °F 94% 29.58 in 5.0 mi WSW 6.9 mph - N/A   Overcast
6:56 AM 69.1 °F 66.9 °F 93% 29.62 in 6.0 mi West 5.8 mph - N/A   Overcast
7:41 AM 69.8 °F 66.2 °F 88% 29.60 in 5.0 mi WNW 5.8 mph - N/A   Scattered Clouds
7:56 AM 69.1 °F 66.0 °F 90% 29.62 in 6.0 mi WNW 8.1 mph - N/A   Clear
8:56 AM 71.1 °F 63.0 °F 75% 29.62 in 10.0 mi WNW 5.8 mph - N/A   Clear
9:56 AM 73.9 °F 62.1 °F 66% 29.65 in 10.0 mi Variable 6.9 mph - N/A   Clear
10:56 AM 75.9 °F 61.0 °F 60% 29.68 in 10.0 mi WSW 8.1 mph - N/A   Clear
11:56 AM 78.1 °F 60.1 °F 54% 29.66 in 10.0 mi West 10.4 mph 18.4 mph N/A   Clear
12:56 PM 77.0 °F 62.1 °F 60% 29.66 in 10.0 mi WSW 13.8 mph 20.7 mph N/A   Clear
1:56 PM 77.0 °F 62.1 °F 60% 29.65 in 10.0 mi WSW 11.5 mph 18.4 mph N/A   Partly Cloudy
2:56 PM 78.1 °F 64.0 °F 62% 29.65 in 10.0 mi WSW 10.4 mph 17.3 mph N/A   Partly Cloudy
3:56 PM 77.0 °F 61.0 °F 58% 29.64 in 10.0 mi WSW 10.4 mph 18.4 mph N/A   Partly Cloudy
4:56 PM 75.9 °F 60.1 °F 58% 29.63 in 10.0 mi WSW 10.4 mph 18.4 mph N/A   Clear
5:56 PM 73.0 °F 50.0 °F 44% 29.66 in 10.0 mi WNW 13.8 mph 24.2 mph N/A   Partly Cloudy
6:56 PM 66.9 °F 50.0 °F 54% 29.71 in 10.0 mi NNW 13.8 mph 21.9 mph N/A   Partly Cloudy
7:56 PM 62.1 °F 45.0 °F 53% 29.77 in 10.0 mi NW 9.2 mph - N/A   Partly Cloudy
8:30 PM 62.6 °F 39.2 °F 42% 29.79 in 10.0 mi NW 16.1 mph 24.2 mph N/A   Partly Cloudy
8:56 PM 61.0 °F 37.0 °F 41% 29.81 in 10.0 mi NW 10.4 mph 18.4 mph N/A   Clear
9:56 PM 57.9 °F 34.0 °F 41% 29.85 in 10.0 mi WNW 11.5 mph 19.6 mph N/A   Clear
10:56 PM 54.0 °F 30.9 °F 41% 29.89 in 10.0 mi NW 13.8 mph 21.9 mph N/A   Clear
11:56 PM 51.1 °F 34.0 °F 52% 29.92 in 10.0 mi NNW 15.0 mph 24.2 mph N/A   Clear